• în Republica Moldova
  • Lista ţărilor
  • Pe 7 zile
  • Temperatura apei
  • Hartă satelitară
  • Meteo pe hartă
  • Widget-uri
  • user-avatar
    Intrare

    Meteo pe oră la Igls

    Astăzi, 21 Septembrie, Joi

    Timp Temperatura Precipitaţii Vânt Presiune Umiditate
    00:00 +4°C° 0 mm 1 m/s 687 mmHg 92%
    01:00 +3°C° 0 mm 2 m/s 687 mmHg 91%
    02:00 +3°C° 0 mm 2 m/s 687 mmHg 89%
    03:00 +3°C° 0 mm 1 m/s 687 mmHg 88%
    04:00 +3°C° 0 mm 1 m/s 686 mmHg 86%
    05:00 +4°C° 0 mm 1 m/s 686 mmHg 83%
    06:00 +4°C° 0 mm 1 m/s 686 mmHg 80%
    07:00 +6°C° 0 mm 1 m/s 686 mmHg 79%
    08:00 +7°C° 0 mm 2 m/s 687 mmHg 74%
    09:00 +10°C° 0 mm 2 m/s 687 mmHg 68%
    10:00 +13°C° 0 mm 2 m/s 687 mmHg 63%
    11:00 +14°C° 0 mm 2 m/s 687 mmHg 60%
    12:00 +15°C° 0 mm 2 m/s 687 mmHg 58%
    13:00 +16°C° 0 mm 2 m/s 686 mmHg 55%
    14:00 +16°C° 0 mm 2 m/s 686 mmHg 57%
    15:00 +15°C° 0 mm 2 m/s 686 mmHg 58%
    16:00 +15°C° 0 mm 2 m/s 686 mmHg 60%
    17:00 +13°C° 0 mm 2 m/s 686 mmHg 68%
    18:00 +10°C° 0 mm 1 m/s 685 mmHg 77%
    19:00 +8°C° 0 mm 1 m/s 685 mmHg 86%
    20:00 +8°C° 0 mm 1 m/s 686 mmHg 85%
    21:00 +7°C° 0 mm 1 m/s 686 mmHg 85%
    22:00 +7°C° 0 mm 1 m/s 686 mmHg 85%
    23:00 +7°C° 0 mm 1 m/s 686 mmHg 82%

    Mâine, 22 Septembrie, Vineri

    Timp Temperatura Precipitaţii Vânt Presiune Umiditate
    00:00 +7°C° 0 mm 1 m/s 686 mmHg 79%
    01:00 +7°C° 0 mm 1 m/s 686 mmHg 76%
    02:00 +7°C° 0 mm 1 m/s 686 mmHg 74%
    03:00 +7°C° 0 mm 1 m/s 686 mmHg 72%
    04:00 +7°C° 0 mm 1 m/s 686 mmHg 70%
    05:00 +8°C° 0 mm 1 m/s 686 mmHg 68%
    06:00 +8°C° 0 mm 1 m/s 686 mmHg 66%
    07:00 +9°C° 0 mm 1 m/s 686 mmHg 65%
    08:00 +11°C° 0 mm 1 m/s 687 mmHg 61%
    09:00 +14°C° 0 mm 1 m/s 687 mmHg 58%
    10:00 +18°C° 0 mm 1 m/s 688 mmHg 54%
    11:00 +19°C° 0 mm 1 m/s 688 mmHg 54%
    12:00 +19°C° 0 mm 1 m/s 688 mmHg 53%
    13:00 +19°C° 0 mm 2 m/s 688 mmHg 53%
    14:00 +18°C° 0 mm 2 m/s 688 mmHg 56%
    15:00 +18°C° 0 mm 2 m/s 687 mmHg 59%
    16:00 +17°C° 0 mm 2 m/s 687 mmHg 62%
    17:00 +15°C° 0 mm 2 m/s 687 mmHg 71%
    18:00 +13°C° 0 mm 1 m/s 687 mmHg 80%
    19:00 +10°C° 0 mm 1 m/s 687 mmHg 88%
    20:00 +10°C° 0 mm 1 m/s 687 mmHg 89%
    21:00 +10°C° 0 mm 1 m/s 688 mmHg 90%
    22:00 +9°C° 0 mm 1 m/s 688 mmHg 91%
    23:00 +9°C° 0 mm 1 m/s 688 mmHg 91%

    Poimâine, 23 Septembrie, Sâmbătă

    Timp Temperatura Precipitaţii Vânt Presiune Umiditate
    00:00 +9°C° 0 mm 1 m/s 688 mmHg 90%
    01:00 +9°C° 0 mm 1 m/s 688 mmHg 90%
    02:00 +8°C° 0 mm 1 m/s 688 mmHg 89%
    03:00 +8°C° 0 mm 1 m/s 688 mmHg 88%
    04:00 +8°C° 0 mm 1 m/s 688 mmHg 87%
    05:00 +9°C° 0 mm 1 m/s 688 mmHg 84%
    06:00 +9°C° 0 mm 1 m/s 688 mmHg 82%
    07:00 +10°C° 0 mm 1 m/s 688 mmHg 80%
    08:00 +12°C° 0 mm 1 m/s 688 mmHg 74%
    09:00 +14°C° 0 mm 1 m/s 688 mmHg 68%
    10:00 +18°C° 0 mm 1 m/s 689 mmHg 62%
    11:00 +18°C° 0 mm 1 m/s 688 mmHg 60%
    12:00 +19°C° 0 mm 1 m/s 688 mmHg 59%
    13:00 +20°C° 0 mm 1 m/s 688 mmHg 57%
    14:00 +18°C° 0 mm 2 m/s 688 mmHg 61%
    15:00 +18°C° 0 mm 2 m/s 687 mmHg 64%
    16:00 +17°C° 0 mm 2 m/s 687 mmHg 67%
    17:00 +15°C° 0,1 mm 2 m/s 687 mmHg 76%
    18:00 +13°C° 0,1 mm 1 m/s 687 mmHg 85%
    19:00 +11°C° 0,1 mm 1 m/s 686 mmHg 94%
    20:00 +11°C° 0 mm 1 m/s 686 mmHg 94%
    21:00 +11°C° 0 mm 1 m/s 687 mmHg 95%
    22:00 +10°C° 0 mm 1 m/s 687 mmHg 96%
    23:00 +10°C° 0 mm 1 m/s 686 mmHg 96%

    24 Septembrie, Duminică

    Timp Temperatura Precipitaţii Vânt Presiune Umiditate
    00:00 +10°C° 0 mm 1 m/s 686 mmHg 96%
    01:00 +9°C° 0 mm 1 m/s 686 mmHg 96%
    02:00 +9°C° 0 mm 1 m/s 686 mmHg 95%
    03:00 +8°C° 0 mm 1 m/s 686 mmHg 95%
    04:00 +8°C° 0 mm 1 m/s 686 mmHg 94%
    05:00 +8°C° 0 mm 1 m/s 686 mmHg 93%
    06:00 +9°C° 0 mm 1 m/s 686 mmHg 92%
    07:00 +9°C° 0 mm 1 m/s 686 mmHg 91%
    08:00 +11°C° 0 mm 1 m/s 686 mmHg 84%
    09:00 +13°C° 0 mm 1 m/s 686 mmHg 76%
    10:00 +16°C° 0 mm 1 m/s 686 mmHg 69%
    11:00 +16°C° 0,2 mm 1 m/s 686 mmHg 69%
    12:00 +16°C° 0,2 mm 1 m/s 686 mmHg 68%
    13:00 +17°C° 0,2 mm 2 m/s 686 mmHg 68%
    14:00 +16°C° 0,5 mm 2 m/s 686 mmHg 72%
    15:00 +16°C° 0,5 mm 2 m/s 685 mmHg 75%
    16:00 +15°C° 0,5 mm 2 m/s 685 mmHg 79%
    17:00 +14°C° 0,4 mm 1 m/s 685 mmHg 83%
    18:00 +12°C° 0,4 mm 1 m/s 685 mmHg 88%
    19:00 +11°C° 0,4 mm 1 m/s 685 mmHg 92%
    20:00 +11°C° 0,1 mm 1 m/s 685 mmHg 93%
    21:00 +10°C° 0,1 mm 1 m/s 685 mmHg 93%
    22:00 +10°C° 0,1 mm 1 m/s 685 mmHg 93%
    23:00 +10°C° 0 mm 1 m/s 685 mmHg 92%

    25 Septembrie, Luni

    Timp Temperatura Precipitaţii Vânt Presiune Umiditate
    00:00 +9°C° 0 mm 1 m/s 685 mmHg 91%
    01:00 +9°C° 0 mm 1 m/s 684 mmHg 90%
    02:00 +8°C° 0 mm 1 m/s 684 mmHg 89%
    03:00 +8°C° 0 mm 1 m/s 684 mmHg 88%
    04:00 +7°C° 0 mm 1 m/s 684 mmHg 87%
    05:00 +8°C° 0 mm 1 m/s 684 mmHg 86%
    06:00 +8°C° 0 mm 1 m/s 684 mmHg 85%
    07:00 +8°C° 0 mm 1 m/s 684 mmHg 84%
    08:00 +11°C° 0 mm 1 m/s 684 mmHg 77%
    09:00 +13°C° 0 mm 1 m/s 685 mmHg 71%
    10:00 +15°C° 0 mm 0 m/s 685 mmHg 64%
    11:00 +18°C° 0 mm 1 m/s 685 mmHg 61%
    12:00 +18°C° 0 mm 1 m/s 685 mmHg 58%
    13:00 +19°C° 0 mm 1 m/s 685 mmHg 55%
    14:00 +19°C° 0,1 mm 1 m/s 685 mmHg 59%
    15:00 +18°C° 0,1 mm 1 m/s 685 mmHg 63%
    16:00 +18°C° 0,1 mm 1 m/s 685 mmHg 67%
    17:00 +15°C° 0,2 mm 1 m/s 684 mmHg 74%
    18:00 +12°C° 0,2 mm 1 m/s 684 mmHg 81%
    19:00 +10°C° 0,2 mm 1 m/s 684 mmHg 88%
    20:00 +10°C° 0 mm 1 m/s 684 mmHg 88%
    21:00 +10°C° 0 mm 1 m/s 685 mmHg 88%
    22:00 +9°C° 0 mm 2 m/s 685 mmHg 89%
    23:00 +8°C° 0 mm 2 m/s 685 mmHg 89%

    26 Septembrie, Marţi

    Timp Temperatura Precipitaţii Vânt Presiune Umiditate
    00:00 +8°C° 0 mm 2 m/s 685 mmHg 89%
    01:00 +8°C° 0 mm 2 m/s 685 mmHg 90%
    02:00 +8°C° 0 mm 2 m/s 685 mmHg 90%
    03:00 +8°C° 0 mm 2 m/s 685 mmHg 90%
    04:00 +8°C° 0 mm 2 m/s 685 mmHg 90%
    05:00 +8°C° 0 mm 2 m/s 685 mmHg 90%
    06:00 +9°C° 0 mm 1 m/s 685 mmHg 89%
    07:00 +9°C° 0 mm 1 m/s 685 mmHg 88%
    08:00 +12°C° 0 mm 1 m/s 686 mmHg 80%
    09:00 +14°C° 0 mm 1 m/s 686 mmHg 72%
    10:00 +18°C° 0 mm 1 m/s 686 mmHg 63%
    11:00 +19°C° 0 mm 1 m/s 686 mmHg 60%
    12:00 +19°C° 0 mm 1 m/s 686 mmHg 57%
    13:00 +20°C° 0 mm 1 m/s 686 mmHg 54%
    14:00 +20°C° 0 mm 1 m/s 686 mmHg 58%
    15:00 +19°C° 0 mm 1 m/s 686 mmHg 61%
    16:00 +19°C° 0 mm 1 m/s 686 mmHg 65%
    17:00 +15°C° 0,1 mm 1 m/s 686 mmHg 74%
    18:00 +13°C° 0,1 mm 1 m/s 686 mmHg 84%
    19:00 +10°C° 0,1 mm 0 m/s 686 mmHg 93%
    20:00 +10°C° 0 mm 0 m/s 686 mmHg 93%
    21:00 +10°C° 0 mm 1 m/s 686 mmHg 93%
    22:00 +10°C° 0 mm 1 m/s 686 mmHg 93%
    23:00 +10°C° 0 mm 1 m/s 687 mmHg 93%
    Arată mai mult